| time (UTC) | temp C | wind direction | speed KPH | gust KPH | rain 1hr cm | rain 24hr cm | rain mn cm | humidity % | barometer mb |
| 20260507143203 | 11 | 301 | 3.2 | 4.8 | 0.00 | 1.14 | 0.03 | 61 | 1007.3 |
| 20260507142703 | 11 | 306 | 3.2 | 4.8 | 0.00 | 1.14 | 0.03 | 62 | 1007.4 |
| 20260507142203 | 11 | 337 | 1.6 | 4.8 | 0.00 | 1.14 | 0.03 | 67 | 1007.3 |
| 20260507141703 | 11 | 231 | 4.8 | 19.3 | 0.00 | 1.14 | 0.03 | 64 | 1007.4 |
| 20260507141203 | 11 | 304 | 3.2 | 4.8 | 0.00 | 1.14 | 0.03 | 66 | 1007.4 |
| 20260507140704 | 11 | 168 | 1.6 | 4.8 | 0.00 | 1.14 | 0.03 | 70 | 1007.4 |
| 20260507140203 | 11 | 346 | 1.6 | 4.8 | 0.00 | 1.14 | 0.03 | 67 | 1007.3 |
| 20260507135704 | 11 | 303 | 3.2 | 4.8 | 0.00 | 1.14 | 0.03 | 68 | 1007.3 |
| 20260507134203 | 10 | 272 | 4.8 | 12.9 | 0.00 | 1.14 | 0.03 | 75 | 1007.3 |
| 20260507133703 | 10 | 292 | 1.6 | 4.8 | 0.00 | 1.14 | 0.03 | 74 | 1007.3 |
| 20260507133204 | 10 | 325 | 1.6 | 4.8 | 0.00 | 1.14 | 0.03 | 74 | 1007.2 |
| 20260507132703 | 10 | 307 | 3.2 | 4.8 | 0.00 | 1.14 | 0.03 | 75 | 1007.2 |
| 20260507132203 | 10 | 293 | 1.6 | 4.8 | 0.00 | 1.14 | 0.03 | 76 | 1007.2 |
| 20260507130703 | 10 | 296 | 1.6 | 8.0 | 0.00 | 1.14 | 0.03 | 78 | 1007.3 |
| 20260507130203 | 10 | 312 | 3.2 | 4.8 | 0.00 | 1.14 | 0.03 | 78 | 1007.3 |
| 20260507125703 | 9 | 294 | 1.6 | 11.3 | 0.00 | 1.14 | 0.03 | 81 | 1007.3 |
| 20260507125203 | 9 | 290 | 3.2 | 4.8 | 0.00 | 1.14 | 0.03 | 80 | 1007.4 |
| 20260507124703 | 9 | 299 | 1.6 | 4.8 | 0.00 | 1.14 | 0.03 | 82 | 1007.3 |
| 20260507124203 | 9 | 352 | 1.6 | 4.8 | 0.00 | 1.14 | 0.03 | 80 | 1007.4 |
| 20260507123703 | 9 | 305 | 3.2 | 4.8 | 0.00 | 1.14 | 0.03 | 81 | 1007.4 |
| 20260507123203 | 8 | 302 | 3.2 | 4.8 | 0.00 | 1.14 | 0.03 | 81 | 1007.4 |
| 20260507122705 | 8 | 325 | 1.6 | 4.8 | 0.00 | 1.14 | 0.03 | 82 | 1007.3 |
| 20260507121703 | 8 | 331 | 0.0 | 4.8 | 0.00 | 1.14 | 0.03 | 83 | 1007.4 |
| 20260507121203 | 8 | 306 | 1.6 | 4.8 | 0.00 | 1.14 | 0.03 | 84 | 1007.3 |
| 20260507120703 | 8 | 305 | 1.6 | 4.8 | 0.00 | 1.14 | 0.03 | 85 | 1007.3 |
| 20260507120204 | 8 | 302 | 3.2 | 4.8 | 0.00 | 1.14 | 0.03 | 84 | 1007.3 |
| 20260507114703 | 7 | 236 | 0.0 | 0.0 | 0.00 | 1.14 | 0.03 | 90 | 1007.4 |
| 20260507114204 | 7 | 243 | 0.0 | 0.0 | 0.00 | 1.14 | 0.03 | 89 | 1007.3 |
| 20260507113703 | 7 | 243 | 0.0 | 0.0 | 0.00 | 1.14 | 0.03 | 89 | 1007.2 |
| 20260507113204 | 7 | 243 | 0.0 | 0.0 | 0.00 | 1.14 | 0.03 | 90 | 1007.1 |
| 20260507112703 | 7 | 290 | 0.0 | 0.0 | 0.00 | 1.14 | 0.03 | 89 | 1006.9 |
| 20260507112204 | 7 | 289 | 0.0 | 0.0 | 0.00 | 1.14 | 0.03 | 90 | 1007.1 |
| 20260507111704 | 7 | 245 | 0.0 | 0.0 | 0.00 | 1.14 | 0.03 | 90 | 1007.2 |
| 20260507111204 | 7 | 238 | 0.0 | 0.0 | 0.00 | 1.14 | 0.03 | 91 | 1007.1 |
| 20260507110704 | 7 | 238 | 0.0 | 1.6 | 0.00 | 1.14 | 0.03 | 91 | 1007.1 |
| 20260507110203 | 7 | 238 | 0.0 | 1.6 | 0.00 | 1.14 | 0.03 | 91 | 1007.1 |
| 20260507105704 | 7 | 238 | 0.0 | 1.6 | 0.00 | 1.14 | 0.03 | 91 | 1007.0 |
| 20260507105203 | 7 | 238 | 0.0 | 1.6 | 0.00 | 1.14 | 0.03 | 91 | 1007.0 |
| 20260507104704 | 7 | 238 | 0.0 | 4.8 | 0.00 | 1.14 | 0.03 | 91 | 1006.9 |
| 20260507103703 | 7 | 237 | 0.0 | 1.6 | 0.00 | 1.14 | 0.03 | 91 | 1006.8 |
| 20260507102703 | 7 | 219 | 0.0 | 3.2 | 0.00 | 1.14 | 0.03 | 91 | 1006.8 |
| 20260507102204 | 7 | 312 | 0.0 | 1.6 | 0.00 | 1.14 | 0.03 | 91 | 1006.5 |
| 20260507101703 | 7 | 305 | 0.0 | 3.2 | 0.00 | 1.14 | 0.03 | 91 | 1006.1 |
| 20260507101203 | 7 | 246 | 0.0 | 0.0 | 0.00 | 1.14 | 0.03 | 91 | 1006.4 |
| 20260507095704 | 7 | 294 | 0.0 | 0.0 | 0.00 | 1.14 | 0.03 | 92 | 1006.5 |
| 20260507095204 | 7 | 294 | 0.0 | 0.0 | 0.00 | 1.14 | 0.03 | 91 | 1006.3 |
| 20260507094204 | 7 | 294 | 1.6 | 3.2 | 0.00 | 1.14 | 0.03 | 92 | 1006.2 |
| 20260507093703 | 7 | 294 | 0.0 | 0.0 | 0.00 | 1.14 | 0.03 | 92 | 1006.2 |
| 20260507092704 | 7 | 294 | 0.0 | 0.0 | 0.00 | 1.14 | 0.03 | 92 | 1006.4 |
| 20260507092204 | 7 | 294 | 0.0 | 1.6 | 0.00 | 1.14 | 0.03 | 92 | 1006.7 |
| 20260507091704 | 7 | 294 | 1.6 | 3.2 | 0.00 | 1.14 | 0.03 | 92 | 1006.7 |
| 20260507091204 | 7 | 237 | 0.0 | 4.8 | 0.00 | 1.14 | 0.03 | 92 | 1006.6 |
| 20260507090703 | 7 | 263 | 0.0 | 1.6 | 0.00 | 1.14 | 0.03 | 92 | 1006.8 |
| 20260507090204 | 7 | 282 | 0.0 | 0.0 | 0.00 | 1.14 | 0.03 | 92 | 1006.7 |
| 20260507085204 | 7 | 282 | 0.0 | 0.0 | 0.00 | 1.14 | 0.03 | 93 | 1006.8 |
| 20260507084703 | 7 | 282 | 0.0 | 0.0 | 0.00 | 1.14 | 0.03 | 93 | 1006.7 |
| 20260507084203 | 7 | 282 | 0.0 | 0.0 | 0.00 | 1.14 | 0.03 | 92 | 1006.9 |
| 20260507083704 | 7 | 282 | 0.0 | 0.0 | 0.00 | 1.14 | 0.03 | 92 | 1006.8 |
| 20260507082704 | 7 | 209 | 0.0 | 0.0 | 0.03 | 1.14 | 0.03 | 92 | 1007.0 |
| 20260507082203 | 7 | 211 | 0.0 | 0.0 | 0.03 | 1.14 | 0.03 | 92 | 1006.7 |
| 20260507081703 | 7 | 211 | 0.0 | 0.0 | 0.03 | 1.14 | 0.03 | 92 | 1006.4 |
| 20260507081204 | 7 | 211 | 0.0 | 0.0 | 0.03 | 1.14 | 0.03 | 92 | 1006.6 |
| 20260507080703 | 7 | 211 | 0.0 | 0.0 | 0.03 | 1.14 | 0.03 | 92 | 1006.4 |
| 20260507080203 | 7 | 211 | 0.0 | 0.0 | 0.03 | 1.14 | 0.03 | 92 | 1006.6 |
| 20260507075703 | 7 | 211 | 0.0 | 0.0 | 0.03 | 1.14 | 0.03 | 91 | 1006.8 |
| 20260507074703 | 7 | 296 | 0.0 | 0.0 | 0.03 | 1.14 | 0.03 | 91 | 1006.3 |
| 20260507074203 | 7 | 296 | 0.0 | 0.0 | 0.03 | 1.14 | 0.03 | 90 | 1006.3 |
| 20260507073703 | 7 | 296 | 0.0 | 0.0 | 0.03 | 1.14 | 0.03 | 90 | 1006.2 |
| 20260507073204 | 8 | 296 | 0.0 | 0.0 | 0.00 | 1.12 | 0.00 | 89 | 1006.3 |
| 20260507072704 | 8 | 296 | 0.0 | 0.0 | 0.00 | 1.12 | 0.00 | 89 | 1006.4 |
| 20260507072203 | 8 | 296 | 0.0 | 0.0 | 0.00 | 1.12 | 0.00 | 88 | 1006.5 |
| 20260507071703 | 8 | 297 | 0.0 | 0.0 | 0.00 | 1.12 | 0.00 | 88 | 1006.8 |
| 20260507071203 | 8 | 296 | 0.0 | 0.0 | 0.00 | 1.12 | 0.00 | 88 | 1006.5 |
| 20260507070203 | 8 | 323 | 0.0 | 0.0 | 0.00 | 1.12 | 0.00 | 89 | 1006.1 |
| 20260507065704 | 7 | 323 | 0.0 | 0.0 | 0.00 | 1.12 | 0.00 | 88 | 1006.1 |
| 20260507065203 | 7 | 323 | 0.0 | 0.0 | 0.00 | 1.12 | 0.00 | 89 | 1006.0 |
| 20260507064703 | 8 | 323 | 0.0 | 0.0 | 0.00 | 1.12 | 0.00 | 88 | 1005.9 |
| 20260507064204 | 8 | 315 | 0.0 | 0.0 | 0.00 | 1.12 | 0.00 | 88 | 1005.8 |
| 20260507063705 | 8 | 314 | 0.0 | 0.0 | 0.00 | 1.12 | 0.00 | 88 | 1005.8 |
| 20260507063204 | 8 | 325 | 0.0 | 0.0 | 0.00 | 1.12 | 0.00 | 88 | 1005.9 |
| 20260507062703 | 8 | 330 | 0.0 | 0.0 | 0.00 | 1.12 | 0.00 | 88 | 1005.3 |
| 20260507061704 | 8 | 231 | 0.0 | 0.0 | 0.00 | 1.12 | 0.00 | 90 | 1006.1 |
| 20260507060704 | 8 | 277 | 0.0 | 0.0 | 0.00 | 1.12 | 0.00 | 89 | 1006.0 |
| 20260507060203 | 8 | 285 | 0.0 | 0.0 | 0.00 | 1.12 | 0.00 | 90 | 1005.8 |
| 20260507055703 | 8 | 285 | 0.0 | 0.0 | 0.00 | 1.12 | 0.00 | 90 | 1005.8 |
| 20260507055204 | 8 | 275 | 0.0 | 3.2 | 0.00 | 1.12 | 0.00 | 90 | 1006.0 |
| 20260507054703 | 8 | 275 | 0.0 | 0.0 | 0.00 | 1.12 | 0.00 | 90 | 1005.8 |
| 20260507054204 | 8 | 275 | 1.6 | 3.2 | 0.00 | 1.12 | 0.00 | 90 | 1006.2 |
| 20260507053704 | 8 | 275 | 0.0 | 3.2 | 0.00 | 1.12 | 0.00 | 90 | 1005.9 |
| 20260507053204 | 8 | 275 | 0.0 | 0.0 | 0.00 | 1.12 | 0.00 | 90 | 1006.2 |
| 20260507052203 | 9 | 283 | 1.6 | 3.2 | 0.00 | 1.12 | 0.00 | 90 | 1006.5 |
| 20260507051703 | 9 | 282 | 1.6 | 4.8 | 0.00 | 1.12 | 0.00 | 90 | 1006.7 |
| 20260507050703 | 9 | 257 | 0.0 | 3.2 | 0.00 | 1.12 | 0.00 | 91 | 1006.6 |
| 20260507050203 | 9 | 256 | 0.0 | 1.6 | 0.00 | 1.12 | 0.00 | 90 | 1006.4 |
| 20260507045704 | 9 | 257 | 1.6 | 4.8 | 0.00 | 1.12 | 0.00 | 90 | 1006.3 |
| 20260507044704 | 9 | 309 | 0.0 | 3.2 | 0.00 | 1.12 | 0.00 | 90 | 1006.3 |
| 20260507044203 | 10 | 323 | 1.6 | 3.2 | 0.00 | 1.12 | 0.00 | 89 | 1006.2 |
| 20260507043704 | 10 | 308 | 1.6 | 4.8 | 0.00 | 1.12 | 0.00 | 90 | 1006.0 |
| 20260507043204 | 10 | 296 | 1.6 | 4.8 | 0.00 | 1.12 | 0.00 | 91 | 1006.0 |
| 20260507042704 | 10 | 322 | 0.0 | 3.2 | 0.03 | 1.12 | 0.00 | 91 | 1005.6 |
| 20260507042204 | 10 | 295 | 1.6 | 8.0 | 0.05 | 1.12 | 0.00 | 92 | 1005.8 |
| 20260507041703 | 10 | 287 | 1.6 | 3.2 | 0.05 | 1.12 | 0.00 | 92 | 1005.9 |
| 20260507041204 | 10 | 271 | 1.6 | 4.8 | 0.05 | 1.12 | 0.00 | 92 | 1005.9 |
| 20260507040703 | 10 | 227 | 1.6 | 4.8 | 0.05 | 1.12 | 0.00 | 92 | 1005.8 |
| 20260507035704 | 11 | 252 | 0.0 | 1.6 | 0.05 | 1.12 | 1.12 | 92 | 1006.0 |
| 20260507035203 | 11 | 245 | 3.2 | 8.0 | 0.05 | 1.12 | 1.12 | 92 | 1006.2 |
| 20260507034704 | 11 | 242 | 1.6 | 9.7 | 0.05 | 1.12 | 1.12 | 92 | 1006.0 |
| 20260507034204 | 11 | 277 | 0.0 | 0.0 | 0.05 | 1.12 | 1.12 | 92 | 1005.9 |
| 20260507033704 | 11 | 277 | 0.0 | 0.0 | 0.05 | 1.12 | 1.12 | 92 | 1005.8 |
| 20260507033203 | 11 | 277 | 0.0 | 3.2 | 0.05 | 1.12 | 1.12 | 91 | 1005.8 |
| 20260507032703 | 11 | 262 | 1.6 | 4.8 | 0.05 | 1.12 | 1.12 | 91 | 1005.8 |
| 20260507032204 | 11 | 261 | 3.2 | 4.8 | 0.00 | 1.07 | 1.07 | 91 | 1005.9 |
| 20260507031704 | 11 | 293 | 1.6 | 14.5 | 0.00 | 1.07 | 1.07 | 91 | 1005.6 |
| 20260507031203 | 11 | 306 | 1.6 | 3.2 | 0.00 | 1.07 | 1.07 | 91 | 1005.5 |
| 20260507030704 | 12 | 303 | 3.2 | 4.8 | 0.00 | 1.07 | 1.07 | 91 | 1005.4 |
| 20260507030203 | 12 | 304 | 1.6 | 3.2 | 0.00 | 1.07 | 1.07 | 92 | 1005.3 |
| 20260507025704 | 12 | 304 | 1.6 | 4.8 | 0.00 | 1.07 | 1.07 | 93 | 1005.3 |
| 20260507025203 | 12 | 298 | 1.6 | 4.8 | 0.00 | 1.07 | 1.07 | 93 | 1005.2 |
| 20260507024704 | 12 | 315 | 1.6 | 3.2 | 0.00 | 1.07 | 1.07 | 92 | 1005.0 |
| 20260507024205 | 12 | 301 | 3.2 | 4.8 | 0.00 | 1.07 | 1.07 | 92 | 1004.8 |
| 20260507023703 | 12 | 296 | 3.2 | 4.8 | 0.00 | 1.07 | 1.07 | 92 | 1004.9 |
| 20260507022704 | 12 | 278 | 3.2 | 4.8 | 0.00 | 1.07 | 1.07 | 92 | 1005.0 |
| 20260507022204 | 12 | 287 | 3.2 | 4.8 | 0.00 | 1.07 | 1.07 | 92 | 1005.2 |
| 20260507021703 | 13 | 290 | 1.6 | 4.8 | 0.00 | 1.07 | 1.07 | 92 | 1005.2 |
| 20260507021204 | 13 | 311 | 3.2 | 4.8 | 0.00 | 1.07 | 1.07 | 91 | 1005.2 |
| 20260507015704 | 14 | 298 | 1.6 | 11.3 | 0.00 | 1.07 | 1.07 | 93 | 1005.0 |
| 20260507015204 | 14 | 223 | 4.8 | 16.1 | 0.00 | 1.07 | 1.07 | 93 | 1004.8 |
| 20260507014204 | 14 | 228 | 8.0 | 19.3 | 0.00 | 1.07 | 1.07 | 93 | 1004.5 |
| 20260507013204 | 14 | 235 | 9.7 | 20.9 | 0.00 | 1.07 | 1.07 | 93 | 1004.7 |
| 20260507012704 | 14 | 214 | 9.7 | 19.3 | 0.00 | 1.07 | 1.07 | 93 | 1004.3 |
| 20260507012203 | 14 | 227 | 8.0 | 20.9 | 0.00 | 1.07 | 1.07 | 93 | 1004.4 |
| 20260507011704 | 14 | 215 | 11.3 | 19.3 | 0.00 | 1.07 | 1.07 | 93 | 1004.4 |
| 20260507011204 | 14 | 210 | 6.4 | 19.3 | 0.00 | 1.07 | 1.07 | 93 | 1004.4 |
| 20260507010204 | 14 | 208 | 11.3 | 32.2 | 0.00 | 1.07 | 1.07 | 93 | 1004.6 |
| 20260507005703 | 14 | 190 | 9.7 | 19.3 | 0.00 | 1.07 | 1.07 | 93 | 1004.5 |
| 20260507005204 | 14 | 216 | 9.7 | 20.9 | 0.03 | 1.07 | 1.07 | 93 | 1004.5 |
| 20260507004703 | 14 | 235 | 8.0 | 19.3 | 0.03 | 1.07 | 1.07 | 93 | 1004.5 |
| 20260507004204 | 14 | 213 | 11.3 | 32.2 | 0.03 | 1.07 | 1.07 | 93 | 1004.5 |
| 20260507003204 | 14 | 224 | 14.5 | 29.0 | 0.03 | 1.07 | 1.07 | 93 | 1004.5 |
| 20260507002704 | 14 | 214 | 9.7 | 24.1 | 0.03 | 1.07 | 1.07 | 93 | 1004.3 |
| 20260507001703 | 14 | 195 | 8.0 | 19.3 | 0.03 | 1.07 | 1.07 | 93 | 1004.3 |
| 20260507000703 | 14 | 199 | 12.9 | 20.9 | 0.03 | 1.07 | 1.07 | 93 | 1004.3 |
| 20260507000212 | 14 | 201 | 8.0 | 22.5 | 0.03 | 1.07 | 1.07 | 93 | 1004.2 |
| 20260506235704 | 14 | 206 | 8.0 | 22.5 | 0.03 | 1.07 | 1.07 | 93 | 1004.3 |
| 20260506235203 | 14 | 224 | 8.0 | 20.9 | 0.00 | 1.04 | 1.04 | 93 | 1004.2 |
| 20260506234704 | 14 | 219 | 8.0 | 12.9 | 0.00 | 1.04 | 1.04 | 93 | 1004.2 |
| 20260506234203 | 14 | 186 | 9.7 | 19.3 | 0.03 | 1.04 | 1.04 | 93 | 1004.2 |
| 20260506233703 | 14 | 203 | 3.2 | 12.9 | 0.05 | 1.04 | 1.04 | 93 | 1004.0 |
| 20260506233204 | 14 | 202 | 4.8 | 14.5 | 0.10 | 1.04 | 1.04 | 93 | 1003.9 |
| 20260506232704 | 14 | 203 | 4.8 | 16.1 | 0.13 | 1.04 | 1.04 | 93 | 1004.0 |
| 20260506232203 | 14 | 216 | 9.7 | 20.9 | 0.18 | 1.04 | 1.04 | 93 | 1003.9 |
| 20260506231204 | 14 | 213 | 6.4 | 16.1 | 0.23 | 1.04 | 1.04 | 93 | 1003.9 |
| 20260506230704 | 14 | 195 | 4.8 | 12.9 | 0.25 | 1.04 | 1.04 | 93 | 1003.8 |
| 20260506230203 | 14 | 214 | 3.2 | 14.5 | 0.28 | 1.04 | 1.04 | 93 | 1003.9 |
| 20260506225705 | 14 | 210 | 4.8 | 14.5 | 0.30 | 1.04 | 1.04 | 93 | 1003.8 |
| 20260506224703 | 14 | 210 | 4.8 | 14.5 | 0.36 | 1.04 | 1.04 | 93 | 1003.9 |
| 20260506224204 | 14 | 186 | 8.0 | 16.1 | 0.33 | 1.02 | 1.02 | 93 | 1004.1 |
| 20260506223704 | 14 | 198 | 3.2 | 8.0 | 0.30 | 0.99 | 0.99 | 93 | 1003.9 |
| 20260506223203 | 14 | 281 | 4.8 | 22.5 | 0.28 | 0.94 | 0.94 | 93 | 1003.9 |
| 20260506222704 | 14 | 210 | 6.4 | 19.3 | 0.25 | 0.91 | 0.91 | 93 | 1004.0 |
| 20260506222203 | 14 | 225 | 9.7 | 19.3 | 0.20 | 0.86 | 0.86 | 92 | 1004.1 |
| 20260506220205 | 14 | 230 | 4.8 | 22.5 | 0.18 | 0.76 | 0.76 | 92 | 1004.2 |
| 20260506215704 | 14 | 211 | 8.0 | 20.9 | 0.18 | 0.74 | 0.74 | 92 | 1004.3 |
| 20260506215204 | 14 | 198 | 4.8 | 19.3 | 0.18 | 0.71 | 0.71 | 92 | 1004.3 |
| 20260506214704 | 14 | 204 | 11.3 | 20.9 | 0.20 | 0.69 | 0.69 | 92 | 1004.2 |
| 20260506214204 | 14 | 222 | 8.0 | 19.3 | 0.23 | 0.69 | 0.69 | 92 | 1004.2 |
| 20260506213704 | 14 | 197 | 8.0 | 19.3 | 0.23 | 0.69 | 0.69 | 92 | 1004.1 |
| 20260506213203 | 14 | 209 | 8.0 | 19.3 | 0.23 | 0.66 | 0.66 | 92 | 1004.2 |
| 20260506212703 | 14 | 190 | 6.4 | 19.3 | 0.25 | 0.66 | 0.66 | 92 | 1004.3 |
| 20260506212205 | 14 | 195 | 6.4 | 25.7 | 0.25 | 0.66 | 0.66 | 92 | 1004.2 |
| 20260506211704 | 14 | 176 | 6.4 | 19.3 | 0.25 | 0.64 | 0.64 | 92 | 1004.2 |
| 20260506211203 | 14 | 197 | 8.0 | 19.3 | 0.28 | 0.64 | 0.64 | 92 | 1004.2 |
| 20260506210204 | 14 | 227 | 8.0 | 19.3 | 0.30 | 0.58 | 0.58 | 92 | 1004.4 |
| 20260506205704 | 14 | 168 | 3.2 | 16.1 | 0.28 | 0.56 | 0.56 | 92 | 1004.3 |
| 20260506204703 | 14 | 217 | 6.4 | 14.5 | 0.25 | 0.48 | 0.48 | 92 | 1004.5 |
| 20260506204204 | 14 | 188 | 4.8 | 12.9 | 0.23 | 0.46 | 0.46 | 92 | 1004.6 |
| 20260506203203 | 14 | 188 | 4.8 | 12.9 | 0.23 | 0.43 | 0.43 | 91 | 1004.6 |
| 20260506201704 | 15 | 208 | 4.8 | 19.3 | 0.18 | 0.38 | 0.38 | 91 | 1004.8 |
| 20260506201204 | 15 | 166 | 4.8 | 16.1 | 0.15 | 0.36 | 0.36 | 90 | 1004.9 |
| 20260506200704 | 15 | 178 | 3.2 | 14.5 | 0.13 | 0.30 | 0.30 | 91 | 1004.9 |
| 20260506200203 | 15 | 199 | 4.8 | 12.9 | 0.10 | 0.28 | 0.28 | 90 | 1004.8 |
| 20260506195704 | 15 | 220 | 3.2 | 19.3 | 0.10 | 0.28 | 0.28 | 90 | 1004.9 |
| 20260506195204 | 15 | 199 | 3.2 | 19.3 | 0.10 | 0.25 | 0.25 | 90 | 1004.9 |
| 20260506194703 | 15 | 125 | 3.2 | 19.3 | 0.08 | 0.23 | 0.23 | 90 | 1004.9 |
| 20260506194203 | 15 | 214 | 1.6 | 19.3 | 0.08 | 0.23 | 0.23 | 89 | 1005.0 |
| 20260506193704 | 15 | 173 | 3.2 | 19.3 | 0.05 | 0.20 | 0.20 | 89 | 1005.2 |
| 20260506193204 | 15 | 231 | 6.4 | 32.2 | 0.05 | 0.20 | 0.20 | 89 | 1005.2 |
| 20260506192704 | 15 | 188 | 9.7 | 22.5 | 0.08 | 0.20 | 0.20 | 88 | 1005.1 |
| 20260506191704 | 15 | 198 | 9.7 | 20.9 | 0.08 | 0.20 | 0.20 | 89 | 1005.1 |
| 20260506191203 | 15 | 205 | 8.0 | 16.1 | 0.10 | 0.20 | 0.20 | 89 | 1005.1 |
| 20260506190704 | 15 | 164 | 4.8 | 11.3 | 0.10 | 0.18 | 0.18 | 90 | 1005.1 |
| 20260506190204 | 15 | 207 | 11.3 | 24.1 | 0.10 | 0.18 | 0.18 | 88 | 1005.2 |
| 20260506185704 | 15 | 222 | 4.8 | 14.5 | 0.13 | 0.18 | 0.18 | 89 | 1005.2 |
| 20260506185203 | 15 | 201 | 6.4 | 16.1 | 0.10 | 0.15 | 0.15 | 89 | 1005.1 |
| 20260506184704 | 15 | 218 | 3.2 | 12.9 | 0.13 | 0.15 | 0.15 | 89 | 1005.0 |
| 20260506184204 | 15 | 181 | 3.2 | 12.9 | 0.15 | 0.15 | 0.15 | 88 | 1005.1 |
| 20260506183204 | 15 | 154 | 4.8 | 16.1 | 0.15 | 0.15 | 0.15 | 88 | 1005.4 |
| 20260506182703 | 16 | 157 | 4.8 | 19.3 | 0.13 | 0.13 | 0.13 | 87 | 1005.4 |
| 20260506182204 | 16 | 179 | 4.8 | 20.9 | 0.13 | 0.13 | 0.13 | 87 | 1005.6 |
| 20260506181704 | 16 | 216 | 3.2 | 14.5 | 0.13 | 0.13 | 0.13 | 87 | 1005.7 |
| 20260506181204 | 16 | 177 | 8.0 | 22.5 | 0.10 | 0.10 | 0.10 | 86 | 1005.7 |
| 20260506180704 | 16 | 219 | 6.4 | 16.1 | 0.08 | 0.08 | 0.08 | 85 | 1005.8 |
| 20260506180204 | 16 | 175 | 6.4 | 16.1 | 0.08 | 0.08 | 0.08 | 84 | 1006.0 |
| 20260506175703 | 16 | 203 | 8.0 | 19.3 | 0.05 | 0.05 | 0.05 | 83 | 1006.0 |
| 20260506175204 | 16 | 0 | 9.7 | 19.3 | 0.05 | 0.05 | 0.05 | 81 | 1006.1 |
| 20260506174704 | 17 | 223 | 9.7 | 19.3 | 0.03 | 0.03 | 0.03 | 78 | 1006.1 |
| 20260506174203 | 17 | 209 | 8.0 | 25.7 | 0.00 | 0.00 | 0.00 | 76 | 1006.2 |
| 20260506173204 | 18 | 214 | 4.8 | 16.1 | 0.00 | 0.00 | 0.00 | 71 | 1006.1 |
| 20260506172703 | 19 | 223 | 8.0 | 20.9 | 0.00 | 0.00 | 0.00 | 69 | 1006.1 |
| 20260506172203 | 19 | 218 | 14.5 | 27.4 | 0.00 | 0.00 | 0.00 | 66 | 1006.1 |
| 20260506171704 | 19 | 211 | 9.7 | 24.1 | 0.00 | 0.00 | 0.00 | 66 | 1005.9 |
| 20260506171204 | 20 | 225 | 11.3 | 25.7 | 0.00 | 0.00 | 0.00 | 65 | 1005.8 |
| 20260506170704 | 20 | 217 | 9.7 | 19.3 | 0.00 | 0.00 | 0.00 | 65 | 1005.8 |
| 20260506170205 | 20 | 217 | 8.0 | 25.7 | 0.00 | 0.00 | 0.00 | 65 | 1005.9 |
| 20260506165704 | 20 | 213 | 9.7 | 20.9 | 0.00 | 0.00 | 0.00 | 65 | 1005.9 |
| 20260506165204 | 20 | 203 | 9.7 | 19.3 | 0.00 | 0.00 | 0.00 | 65 | 1005.9 |
| 20260506164703 | 20 | 195 | 4.8 | 29.0 | 0.00 | 0.00 | 0.00 | 65 | 1006.0 |
| 20260506163704 | 20 | 248 | 4.8 | 19.3 | 0.00 | 0.00 | 0.00 | 65 | 1006.0 |
| 20260506163231 | 20 | 212 | 14.5 | 32.2 | 0.00 | 0.00 | 0.00 | 64 | 1006.0 |
| 20260506162212 | 20 | 207 | 11.3 | 27.4 | 0.00 | 0.00 | 0.00 | 64 | 1006.2 |
| 20260506161710 | 19 | 216 | 12.9 | 27.4 | 0.00 | 0.00 | 0.00 | 64 | 1006.4 |
| 20260506161208 | 19 | 233 | 8.0 | 27.4 | 0.00 | 0.00 | 0.00 | 64 | 1006.3 |
| 20260506160746 | 19 | 252 | 16.1 | 32.2 | 0.00 | 0.00 | 0.00 | 64 | 1006.4 |
| 20260506160203 | 19 | 225 | 16.1 | 33.8 | 0.00 | 0.00 | 0.00 | 64 | 1006.6 |
| 20260506155702 | 20 | 161 | 9.7 | 20.9 | 0.00 | 0.00 | 0.00 | 64 | 1006.7 |
| 20260506155203 | 19 | 253 | 8.0 | 27.4 | 0.00 | 0.00 | 0.00 | 64 | 1006.7 |
| 20260506154702 | 19 | 186 | 9.7 | 32.2 | 0.00 | 0.00 | 0.00 | 64 | 1006.7 |
| 20260506154202 | 19 | 203 | 14.5 | 24.1 | 0.00 | 0.00 | 0.00 | 64 | 1006.9 |
| 20260506153703 | 19 | 221 | 8.0 | 19.3 | 0.00 | 0.00 | 0.00 | 65 | 1006.7 |
| 20260506153204 | 19 | 193 | 9.7 | 29.0 | 0.00 | 0.00 | 0.00 | 65 | 1006.9 |
| 20260506152702 | 19 | 218 | 12.9 | 37.0 | 0.00 | 0.00 | 0.00 | 65 | 1006.9 |
| 20260506152202 | 19 | 198 | 16.1 | 32.2 | 0.00 | 0.00 | 0.00 | 65 | 1007.0 |
| 20260506151702 | 19 | 194 | 9.7 | 24.1 | 0.00 | 0.00 | 0.00 | 66 | 1007.1 |
| 20260506151204 | 19 | 226 | 4.8 | 14.5 | 0.00 | 0.00 | 0.00 | 67 | 1007.0 |
| 20260506150702 | 19 | 182 | 8.0 | 16.1 | 0.00 | 0.00 | 0.00 | 67 | 1007.1 |
| 20260506145703 | 19 | 221 | 8.0 | 19.3 | 0.00 | 0.00 | 0.00 | 67 | 1007.3 |
| 20260506145202 | 19 | 192 | 6.4 | 16.1 | 0.00 | 0.00 | 0.00 | 67 | 1007.3 |
| 20260506144702 | 19 | 175 | 8.0 | 22.5 | 0.00 | 0.00 | 0.00 | 68 | 1007.3 |
| 20260506144202 | 19 | 190 | 4.8 | 19.3 | 0.00 | 0.00 | 0.00 | 69 | 1007.2 |
| 20260506143702 | 19 | 206 | 8.0 | 22.5 | 0.00 | 0.00 | 0.00 | 69 | 1007.3 |